AirNav   Advertisement
 
 358 users online  

NC27 Lower Creek Airport
Lenoir, North Carolina, USA

GOING TO LENOIR?


FAA INFORMATION EFFECTIVE 14 SEPTEMBER 2017

Location

FAA Identifier: NC27
Lat/Long: 35-56-40.4700N / 081-29-24.3400W
35-56.674500N / 081-29.405667W
35.9445750 / -81.4900944
(estimated)
Elevation: 1195 ft. / 364.2 m (surveyed)
Variation: 05W (1985)
From city: 3 miles NE of LENOIR, NC
Time zone: UTC -4 (UTC -5 during Standard Time)
Zip code: 28645

Airport Operations

Airport use: Private use. Permission required prior to landing
Activation date: 06/1959
Control tower: no
ARTCC: ATLANTA CENTER
FSS: RALEIGH FLIGHT SERVICE STATION
Attendance: IREG
Wind indicator: yes
Segmented circle: no

Airport Communications

WX AWOS-3P at MRN (10 nm SW): 124.175 (828-757-0788)
WX ASOS at HKY (13 nm S): 118.325 (828-322-2996)
  • UNICOM--CTAF 122.900.

Nearby radio navigation aids

VOR radial/distance  VOR name  Freq  Var
BZMr297/13.0BARRETTS MOUNTAIN VOR/DME110.8006W

 
NDB name  Hdg/Dist  Freq  Var  ID
TAWBA323/13.133206WHK .... -.-
FIDDLERS039/16.639107WFIQ ..-. .. --.-
HEMLOCK126/22.732002WBAR -... .- .-.
ASHEE203/30.541007WJUH .--- ..- ....
LINCOLNTON327/31.343206WIZN .. --.. -.

Airport Services

Airframe service: NONE
Powerplant service: NONE

Runway Information

Runway 5/23

Dimensions: 3200 x 150 ft. / 975 x 46 m
Surface: turf
RUNWAY 5  RUNWAY 23
Traffic pattern: leftright
Obstructions: none30 ft. pline, 400 ft. from runway

Airport Ownership and Management from official FAA records

Ownership: Privately-owned
Owner: LENOIR AVIATION CLUB, INC
PO BOX 220
LENOIR, NC 28645
Phone 828-754-3849
Manager: JAKE RHODES
2005 WILDWOOD RD
LENOIR, NC 28645

Airport Operational Statistics

Aircraft based on the field: 45
Single engine airplanes: 45
    

Instrument Procedures

There are no published instrument procedures at NC27.

Some nearby airports with instrument procedures:

KMRN - Foothills Regional Airport (10 nm SW)
KHKY - Hickory Regional Airport (13 nm S)
KUKF - Wilkes County Airport (25 nm NE)
KSVH - Statesville Regional Airport (28 nm E)
KGEV - Ashe County Airport (29 nm N)
 
Loc | Ops | Rwys | IFR | FBO | Links
Com | Nav | Svcs | Stats | Notes


 
Area around NC27 (Lower Creek Airport)
 
Road maps at: MapQuest Bing Google
 
Aerial photo
WARNING: Photo may not be current or correct
Aerial photo of NC27 (Lower Creek Airport)
Do you have a better or more recent aerial photo of Lower Creek Airport that you would like to share? If so, please send us your photo.

 
Sectional chart

 
Airport distance calculator
Flying to Lower Creek Airport? Find the distance to fly.

From to NC27

Sunrise and sunset
Times for 22-Sep-2017
 Local
(UTC-4)
 Zulu
(UTC)
Morning civil twilight06:4910:49
Sunrise07:1511:15
Sunset19:2323:23
Evening civil twilight19:4823:48

Current date and time
Zulu (UTC)  22-Sep-2017 06:43:19
Local (UTC-4)  22-Sep-2017 02:43:19
 
METAR
KMRN 
10nm SW 
220605Z AUTO 00000KT 5SM BR CLR 17/17 A3013 RMK AO2 T01650165
KHKY 
13nm SE 
220553Z AUTO 00000KT 10SM CLR 19/19 A3009 RMK AO2 SLP166 T01940189 10239 20194 $
KTNB 
17nm NW 
118.525 828-268-8921
220615Z AUTO 00000KT 3SM BR CLR 14/14 A3021 RMK AO2 T01380138
TAF
KHKY 
13nm SE 
220521Z 2206/2306 00000KT P6SM FEW250 FM221200 35003KT 3SM BR FEW150 FM221300 01003KT P6SM FEW200 FM221800 07003KT P6SM SCT040 SCT200
NOTAMs
Click for the latest NOTAMs
NOTAMs are issued by the DoD/FAA and will open in a separate window not controlled by AirNav.

 

 
 

Would you like to see your business listed on this page?

 If your business provides an interesting product or service to pilots, flight crews, aircraft, or users of the Lower Creek Airport, you should consider listing it here.  To start the listing process, click on the button below
 
Add a business
 

Other Pages about Lower Creek Airport

Update a link
 
Copyright © AirNav, LLC. All rights reserved. Privacy Policy  Contact